[[{"header":{"parameterUnit":"m.s-1","parameterCategory":2,"la1":30.2991,"la2":30.254,"lo1":-89.0895,"lo2":-89.0444,"dy":0.0017,"dx":0.0017,"nx":28,"ny":28,"refTime":"2023-07-19T09:00:00:Z","depth":"0","parameterNumber":2,"parameterNumberName":"U-component_of_CURRENTS"},"data":[0,0,0,0,0,0,0,0,0,0,0,0,0,0,0,0,0,0,0,0,0,0,0,0,0,0,0,0,0,0,0,0,0,0,0,0,0,0,0,0,0,0,0,0,0,0,0,0,0,0,0,0,0,0,0,0,0,0,0.2745,0.2747,0,0.2873,0.2874,0.2875,0.2866,0.2864,0.2863,0.2861,0.2845,0.2846,0.2847,0,0,0,0,0,0,0,0,0,0,0,0,0,0.2738,0.2736,0.2745,0.2747,0.2749,0.2873,0.2874,0.2875,0.2866,0.2864,0.2862,0.2861,0.2845,0.2846,0.2847,0,0,0,0,0,0,0,0,0,0,0,0,0,0.2786,0.2736,0.2744,0.2763,0.2766,0.2873,0.2874,0.2876,0.2866,0.2864,0.2862,0.286,0.2845,0.2846,0.2848,0.2901,0,0,0.2852,0.2852,0,0,0,0,0,0,0,0,0.2783,0.2785,0.2758,0.2762,0.2766,0.2855,0.2867,0.2879,0.2867,0.2823,0.2861,0.2859,0.284,0.2842,0.2866,0.29,0.2899,0.2852,0.2853,0.2853,0.2854,0,0,0,0,0,0,0,0.2779,0.2782,0.2791,0.276,0.2765,0.285,0.2851,0.287,0.2836,0.2827,0.2827,0.285,0.284,0.2865,0.2865,0.2899,0.2852,0.2853,0.2854,0.2855,0.2878,0.2878,0,0,0,0,0,0,0.2762,0.2777,0.2787,0.2795,0.2775,0.2851,0.2852,0.2825,0.2839,0.2842,0.2852,0.2849,0.2863,0.2864,0.2864,0.2848,0.2853,0.2855,0.2856,0.2878,0.2878,0.2878,0,0,0,0,0,0,0.2761,0.276,0.2782,0.2796,0.2805,0.2851,0.2822,0.2829,0.2855,0.2861,0.2859,0.2872,0.2862,0.2862,0.2859,0.2849,0.2855,0.2857,0.2879,0.2878,0.2878,0.2865,0,0,0,0,0,0,0.2759,0.2757,0.2742,0.2793,0.2804,0.285,0.2825,0.2833,0.2875,0.2873,0.2878,0.2874,0.286,0.2857,0.2861,0.2851,0.2858,0.2879,0.2879,0.2878,0.2866,0.2864,0.2863,0,0,0,0,0,0.2758,0.2738,0.2739,0.2742,0.2775,0.2852,0.2866,0.2891,0.2878,0.2903,0.2879,0.2874,0.2856,0.2859,0.2863,0.2854,0.2879,0.2879,0.2878,0.2866,0.2864,0.2863,0,0,0,0,0,0,0.2755,0.2738,0.2739,0.2722,0.2788,0.2852,0.2873,0.2903,0.2913,0.2892,0.2883,0.2879,0.287,0.2871,0.2874,0.2858,0.2864,0.2864,0.2853,0.2851,0.285,0.2877,0.2859,0,0,0,0,0,0.2743,0.2714,0.2749,0.2758,0.2764,0.2824,0.286,0.2887,0.2907,0.2911,0.2909,0.2892,0.2878,0.287,0.2867,0.2873,0.2893,0.2866,0.2864,0.2863,0.2887,0.2932,0.2938,0.2876,0.2876,0.2876,0,0,0.2769,0.2748,0.2746,0.2757,0.279,0.2798,0.2837,0.2892,0.2901,0.2906,0.2894,0.2898,0.288,0.2867,0.2863,0.2862,0.288,0.2862,0.2861,0.2886,0.2932,0.2939,0.2944,0.2876,0.2876,0.2876,0,0,0.2769,0.2757,0.2709,0.2753,0.2793,0.2815,0.283,0.2884,0.2896,0.2913,0.2896,0.2905,0.2889,0.288,0.2867,0.2868,0.2877,0.2853,0.2864,0.2907,0.2913,0.2919,0.2907,0.2912,0.2846,0.2846,0.2846,0,0.2773,0.2726,0.2736,0.2714,0.2743,0.2806,0.2801,0.2833,0.289,0.29,0.2896,0.2904,0.2895,0.2884,0.2872,0.2867,0.2877,0.2868,0.2907,0.2914,0.292,0.2907,0.2913,0.2845,0.2846,0.2846,0.2846,0,0.2748,0.272,0.2713,0.2664,0.2703,0.2737,0.2767,0.2794,0.2809,0.2848,0.2872,0.2887,0.2896,0.2885,0.2874,0.2905,0.289,0.2905,0.2915,0.2926,0.291,0.2916,0.2844,0.2845,0.2845,0.2845,0,0,0.2703,0.2676,0.2683,0.2658,0.2684,0.2714,0.271,0.2737,0.2751,0.2805,0.2828,0.2833,0.2887,0.2881,0.2891,0.2929,0.2961,0.2936,0.2939,0.2929,0.3021,0.2879,0.2872,0.2988,0.299,0.2992,0.2975,0,0.2665,0.2604,0.2616,0.2603,0.2562,0.2628,0.2624,0.2674,0.272,0.2761,0.2813,0.2838,0.2868,0.2882,0.2932,0.2969,0.2986,0.2963,0.3008,0.3009,0.2889,0.2879,0.28,0.2769,0.2981,0.2982,0.2983,0,0.2614,0.2569,0.2523,0.2522,0.2517,0.2526,0.2558,0.258,0.2652,0.2691,0.2764,0.2826,0.2892,0.2916,0.301,0.2996,0.3009,0.3035,0.3035,0.2924,0.2881,0.2802,0.2773,0.2806,0.2993,0.2992,0.2991,0,0.2538,0.2518,0.2471,0.2485,0.2477,0.2476,0.2488,0.2551,0.2569,0.2662,0.2693,0.2809,0.2845,0.2935,0.2991,0.3012,0.3074,0.3103,0.298,0.2969,0.2922,0.2902,0.2943,0.3157,0.3157,0.3157,0.3157,0,0.247,0.2452,0.2436,0.2407,0.2377,0.2412,0.2418,0.2449,0.2508,0.253,0.2659,0.2701,0.2859,0.2918,0.2985,0.2983,0.3065,0.2983,0.2965,0.2905,0.2884,0.2928,0.293,0.3156,0.3157,0.3157,0.3157,0,0.2394,0.2396,0.2316,0.2297,0.2317,0.2287,0.234,0.2363,0.2417,0.245,0.2472,0.261,0.2708,0.282,0.2934,0.2926,0.2887,0.2929,0.2812,0.2779,0.2695,0.2697,0.247,0.243,0.2818,0.2815,0.2812,0,0.2355,0.2291,0.2224,0.2202,0.2194,0.2199,0.2221,0.2288,0.231,0.2389,0.2388,0.2496,0.2569,0.2659,0.2715,0.2769,0.2751,0.265,0.2682,0.2671,0.2664,0.2496,0.2471,0.2606,0.2601,0.2598,0.2595,0,0.2231,0.2191,0.2121,0.2072,0.2072,0.2095,0.2121,0.2119,0.2198,0.2223,0.2261,0.2325,0.2429,0.2482,0.2511,0.2532,0.2538,0.2572,0.2634,0.2548,0.2301,0.2261,0.2604,0.2563,0.2566,0.2569,0.257,0.2572,0.2137,0.2052,0.1962,0.1942,0.1956,0.1979,0.1959,0.2,0.2007,0.2006,0.2112,0.2159,0.2276,0.2354,0.2345,0.2325,0.2303,0.2327,0.2342,0.218,0.21,0.2319,0.2207,0.2209,0.2209,0.221,0.2211,0,0.1992,0.1936,0.1875,0.1818,0.1831,0.1882,0.1896,0.186,0.1831,0.1875,0.1892,0.2005,0.2062,0.216,0.2194,0.2144,0.2046,0.2131,0.1988,0.1994,0.2292,0.2252,0.2056,0.2056,0.2056,0.2056,0.2056,0.2056,0.1902,0.1804,0.1778,0.1735,0.1734,0.1704,0.1695,0.1634,0.1633,0.1619,0.1666,0.1755,0.1973,0.2083,0.21,0.2064,0.1997,0.1823,0.1878,0.2248,0.2271,0.2294,0.2262,0.2072,0.2072,0.151,0.1506,0.1504]},{"header":{"parameterUnit":"m.s-1","parameterCategory":2,"la1":30.2991,"la2":30.254,"lo1":-89.0895,"lo2":-89.0444,"dy":0.0017,"dx":0.0017,"nx":28,"ny":28,"refTime":"2023-07-19T09:00:00:Z","depth":"0","parameterNumber":3,"parameterNumberName":"V-component_of_CURRENTS"},"data":[0,0,0,0,0,0,0,0,0,0,0,0,0,0,0,0,0,0,0,0,0,0,0,0,0,0,0,0,0,0,0,0,0,0,0,0,0,0,0,0,0,0,0,0,0,0,0,0,0,0,0,0,0,0,0,0,0,0,0.001,0.0011,0,0.0144,0.0145,0.0147,0.0211,0.0211,0.021,0.021,0.0344,0.0348,0.0352,0,0,0,0,0,0,0,0,0,0,0,0,0,-0.0018,-0.0018,0.001,0.0011,0.0012,0.0143,0.0146,0.0148,0.0211,0.0211,0.021,0.021,0.0343,0.0348,0.0353,0,0,0,0,0,0,0,0,0,0,0,0,0,0.0046,-0.0019,0.0009,0.0057,0.0063,0.0143,0.0146,0.0148,0.0211,0.0211,0.021,0.021,0.0342,0.0347,0.0353,0.04,0,0,0.0371,0.0374,0,0,0,0,0,0,0,0,0.0042,0.0047,0.0049,0.0054,0.006,0.0157,0.0185,0.0231,0.0211,0.0158,0.021,0.0209,0.028,0.0291,0.0322,0.0407,0.0412,0.0372,0.0375,0.0378,0.0379,0,0,0,0,0,0,0,0.0037,0.0042,0.0066,0.005,0.0057,0.0132,0.0139,0.0195,0.0223,0.0163,0.0167,0.0177,0.0284,0.0316,0.0326,0.0414,0.0371,0.0377,0.038,0.0383,0.0537,0.0538,0,0,0,0,0,0,0.0005,0.0037,0.0062,0.007,0.0046,0.0131,0.014,0.0129,0.0223,0.0235,0.0177,0.0179,0.0307,0.0319,0.0331,0.0382,0.0378,0.0383,0.0387,0.0537,0.0538,0.0538,0,0,0,0,0,0,0.0004,0.0005,0.0056,0.0056,0.0067,0.0131,0.012,0.0132,0.0173,0.0233,0.0246,0.0205,0.0307,0.0322,0.0395,0.0388,0.0386,0.0391,0.0536,0.0537,0.0538,0.0492,0,0,0,0,0,0,0.0002,0.0003,-0.0015,0.0052,0.0065,0.0111,0.0121,0.0135,0.0178,0.0182,0.0261,0.0273,0.0307,0.0386,0.0401,0.0396,0.0396,0.0535,0.0537,0.0538,0.0493,0.0491,0.049,0,0,0,0,0,0.0,-0.0013,-0.0017,-0.0013,0.0037,0.0111,0.0126,0.0173,0.0179,0.0207,0.0259,0.0271,0.0402,0.0392,0.0409,0.0406,0.0535,0.0536,0.0538,0.0493,0.0491,0.049,0,0,0,0,0,0,-0.0014,-0.0006,-0.0009,-0.0016,0.0041,0.0121,0.0143,0.0178,0.0243,0.0246,0.0297,0.0314,0.0368,0.0403,0.039,0.0454,0.0463,0.0468,0.0424,0.0423,0.0421,0.0429,0.0401,0,0,0,0,0,-0.0036,-0.0057,-0.0009,-0.0011,0.0008,0.0075,0.0108,0.015,0.0214,0.0242,0.0294,0.0345,0.0387,0.0417,0.0467,0.0517,0.0538,0.0521,0.0519,0.0518,0.0536,0.0555,0.0556,0.0543,0.0543,0.0543,0,0,-0.0029,-0.004,-0.004,-0.0017,0.0023,0.0074,0.0095,0.0155,0.0204,0.0247,0.032,0.0349,0.0401,0.0449,0.0474,0.0478,0.0531,0.052,0.0518,0.0537,0.0556,0.0557,0.0558,0.0543,0.0543,0.0543,0,0,-0.0022,-0.0048,-0.0053,-0.0016,0.0031,0.0078,0.0094,0.0177,0.0213,0.0293,0.0315,0.0347,0.0437,0.0457,0.048,0.0506,0.0523,0.0511,0.0512,0.0529,0.053,0.0531,0.0545,0.0548,0.0509,0.0509,0.0508,0,-0.0035,-0.0025,-0.003,-0.0014,0.0026,0.0077,0.013,0.0176,0.0277,0.0304,0.0314,0.0411,0.044,0.0482,0.0481,0.0501,0.0516,0.0509,0.0525,0.0527,0.0529,0.0543,0.0547,0.0506,0.0507,0.0507,0.0507,0,-0.0003,0.0003,0.0012,0.0032,0.0077,0.0134,0.0193,0.0239,0.0281,0.0326,0.0383,0.0424,0.0479,0.0473,0.049,0.0509,0.0516,0.0517,0.0523,0.0527,0.0542,0.0547,0.0504,0.0504,0.0505,0.0505,0,0,-0.0051,0.0016,0.0013,0.0046,0.0111,0.0157,0.0217,0.0291,0.0326,0.0388,0.044,0.0475,0.0482,0.0509,0.0513,0.0519,0.0524,0.0522,0.0523,0.0525,0.0563,0.0534,0.0537,0.0523,0.0524,0.0525,0.0562,0,-0.0028,0.0017,0.0051,0.0129,0.0174,0.0227,0.0277,0.0339,0.039,0.0446,0.0466,0.0514,0.0499,0.0514,0.0518,0.0536,0.0538,0.0515,0.057,0.0572,0.0537,0.0542,0.0535,0.0566,0.0567,0.0568,0.0568,0,-0.0017,0.0014,0.0086,0.0176,0.0198,0.0251,0.0331,0.0379,0.0441,0.0481,0.052,0.0548,0.0575,0.0557,0.0585,0.0572,0.0568,0.0569,0.0571,0.057,0.0553,0.0567,0.0574,0.0564,0.0576,0.0575,0.0574,0,-0.0042,0.0037,0.0095,0.0127,0.0228,0.0268,0.0319,0.0383,0.0418,0.0494,0.0532,0.0579,0.0607,0.0617,0.0619,0.0608,0.0647,0.0633,0.0604,0.0602,0.0623,0.0621,0.0622,0.0648,0.0648,0.0648,0.0648,0,-0.0035,0.0012,0.0086,0.0123,0.0188,0.0249,0.0311,0.0368,0.0432,0.0475,0.0532,0.0584,0.0622,0.0651,0.0643,0.0642,0.0667,0.0615,0.0613,0.0605,0.0601,0.0615,0.0595,0.0649,0.0649,0.0649,0.0649,0,-0.0056,-0.0009,0.006,0.0155,0.0182,0.0218,0.0308,0.0348,0.0403,0.0467,0.0493,0.0592,0.0639,0.0661,0.069,0.067,0.0672,0.0658,0.0644,0.0639,0.0593,0.0571,0.0554,0.0652,0.0644,0.0643,0.0643,0,-0.0052,-0.0029,0.0059,0.0089,0.014,0.0197,0.0241,0.0323,0.037,0.047,0.0508,0.0581,0.0652,0.069,0.0677,0.0674,0.0667,0.0645,0.0617,0.0597,0.0571,0.0535,0.0619,0.0628,0.0628,0.0627,0.0627,0,-0.0047,-0.0033,0.0025,0.0081,0.0136,0.0194,0.0269,0.0307,0.0392,0.0455,0.0549,0.0611,0.0658,0.0685,0.0674,0.0658,0.0651,0.0635,0.0629,0.0572,0.0522,0.0613,0.0594,0.0624,0.0624,0.0624,0.0624,0.0624,-0.0046,-0.0025,0.0031,0.0088,0.0146,0.0212,0.0269,0.0344,0.0422,0.0539,0.0571,0.0699,0.0704,0.0706,0.0656,0.0594,0.0624,0.058,0.056,0.0529,0.0604,0.0568,0.0579,0.058,0.058,0.058,0.058,0,-0.0018,-0.0001,0.0037,0.0123,0.0187,0.0215,0.0305,0.0363,0.0465,0.0584,0.0663,0.08,0.0752,0.0718,0.0605,0.0542,0.0566,0.052,0.0487,0.0592,0.0572,0.0553,0.0541,0.0541,0.0541,0.0541,0.0541,0.0541,0.0006,0.0039,0.005,0.0144,0.0201,0.0293,0.0347,0.0423,0.0527,0.071,0.0863,0.0982,0.1087,0.0675,0.0513,0.0478,0.0527,0.0423,0.0532,0.0495,0.05,0.0504,0.0483,0.0457,0.0457,0.0598,0.0598,0.0599]}],[{"header":{"parameterUnit":"m.s-1","parameterCategory":2,"la1":30.2991,"la2":30.254,"lo1":-89.0895,"lo2":-89.0444,"dy":0.0017,"dx":0.0017,"nx":28,"ny":28,"refTime":"2023-07-19T09:00:00:Z","depth":"2","parameterNumber":2,"parameterNumberName":"U-component_of_CURRENTS"},"data":[0,0,0,0,0,0,0,0,0,0,0,0,0,0,0,0,0,0,0,0,0,0,0,0,0,0,0,0,0,0,0,0,0,0,0,0,0,0,0,0,0,0,0,0,0,0,0,0,0,0,0,0,0,0,0,0,0,0,0.1748,0.175,0,0.1712,0.1709,0.1707,0.1619,0.1619,0.162,0.162,0.1758,0.1761,0.1764,0,0,0,0,0,0,0,0,0,0,0,0,0,0.1519,0.1523,0.1748,0.175,0.1752,0.1712,0.1709,0.1706,0.1619,0.1619,0.162,0.162,0.1757,0.1761,0.1765,0,0,0,0,0,0,0,0,0,0,0,0,0,0.1541,0.1524,0.1748,0.1722,0.1721,0.1713,0.1709,0.1705,0.1619,0.1619,0.162,0.162,0.1756,0.176,0.1765,0.1782,0,0,0.178,0.1782,0,0,0,0,0,0,0,0,0.154,0.1546,0.1724,0.1724,0.1723,0.1692,0.168,0.1748,0.1618,0.1631,0.162,0.1621,0.1768,0.1772,0.1725,0.1789,0.1795,0.1781,0.1783,0.1786,0.1787,0,0,0,0,0,0,0,0.1539,0.1547,0.1708,0.1726,0.1726,0.1637,0.164,0.1688,0.168,0.163,0.163,0.1665,0.1765,0.172,0.1729,0.1797,0.178,0.1785,0.1788,0.179,0.207,0.2074,0,0,0,0,0,0,0.1605,0.1547,0.171,0.171,0.1659,0.1643,0.1645,0.1681,0.1676,0.1682,0.1665,0.1662,0.1712,0.1723,0.1734,0.1861,0.1786,0.179,0.1793,0.2065,0.2071,0.2075,0,0,0,0,0,0,0.16,0.162,0.1712,0.1646,0.1655,0.1651,0.1689,0.1681,0.1732,0.1705,0.1709,0.1739,0.1713,0.1728,0.1872,0.1863,0.1792,0.1797,0.206,0.2067,0.2073,0.2049,0,0,0,0,0,0,0.1594,0.1618,0.1661,0.1652,0.1663,0.1715,0.1691,0.168,0.1759,0.1756,0.177,0.1776,0.1714,0.1865,0.1877,0.1868,0.1801,0.2054,0.2063,0.2071,0.2044,0.2054,0.2062,0,0,0,0,0,0.1585,0.1623,0.1662,0.1684,0.1723,0.1718,0.171,0.1691,0.1764,0.1748,0.1831,0.178,0.1925,0.1875,0.1887,0.1878,0.205,0.206,0.207,0.204,0.2052,0.2062,0,0,0,0,0,0,0.1558,0.1621,0.1662,0.1726,0.1742,0.1712,0.1727,0.1769,0.1814,0.1842,0.1861,0.1871,0.1985,0.1986,0.1932,0.1997,0.1971,0.1984,0.1944,0.1956,0.1965,0.1901,0.1805,0,0,0,0,0,0.1584,0.1624,0.1671,0.1729,0.1755,0.1781,0.1798,0.1783,0.1832,0.1851,0.1923,0.1984,0.2018,0.2041,0.2077,0.2136,0.2129,0.2143,0.2152,0.2159,0.2126,0.2219,0.2231,0.2109,0.2109,0.2108,0,0,0.1535,0.1644,0.1623,0.1726,0.1748,0.1771,0.1785,0.181,0.1806,0.1871,0.1968,0.2051,0.2063,0.2096,0.2143,0.21,0.2182,0.2172,0.2176,0.2138,0.2231,0.2242,0.2251,0.2116,0.2114,0.2113,0,0,0.1511,0.1625,0.1632,0.1685,0.1778,0.1793,0.1849,0.1898,0.1882,0.1965,0.2032,0.214,0.2211,0.2193,0.2189,0.2301,0.2259,0.2338,0.2283,0.2376,0.2384,0.2391,0.233,0.2332,0.2303,0.2303,0.2303,0,0.1511,0.1563,0.1624,0.1707,0.1768,0.1845,0.1868,0.1845,0.1942,0.1948,0.199,0.2193,0.221,0.2253,0.2248,0.2303,0.2327,0.2217,0.2378,0.2387,0.2394,0.233,0.2333,0.2303,0.2303,0.2303,0.2303,0,0.1471,0.1554,0.1593,0.173,0.1771,0.1817,0.1838,0.1886,0.1958,0.1946,0.2059,0.2138,0.2252,0.2265,0.2253,0.2337,0.2322,0.2402,0.2322,0.2403,0.2332,0.2335,0.2303,0.2303,0.2303,0.2303,0,0,0.139,0.1536,0.1554,0.1637,0.1805,0.1831,0.1848,0.1857,0.1881,0.1961,0.2011,0.2076,0.2196,0.2211,0.2296,0.232,0.2349,0.2365,0.237,0.2249,0.2467,0.2334,0.2323,0.2491,0.2493,0.2495,0.2366,0,0.1379,0.1487,0.1571,0.1672,0.1725,0.1834,0.1823,0.183,0.1874,0.1936,0.1978,0.2078,0.2146,0.2244,0.2298,0.2356,0.2371,0.2369,0.2453,0.2451,0.2282,0.2329,0.2168,0.2034,0.2369,0.2369,0.237,0,0.1347,0.1422,0.1504,0.1642,0.1673,0.1763,0.1851,0.1856,0.1878,0.1867,0.2009,0.2106,0.218,0.2261,0.2361,0.2378,0.242,0.2435,0.2434,0.2314,0.2327,0.2031,0.2027,0.2374,0.2374,0.2373,0.2373,0,0.1269,0.1414,0.1498,0.1564,0.1686,0.1753,0.1837,0.1865,0.1838,0.1927,0.1971,0.2086,0.2186,0.2286,0.2341,0.2381,0.2405,0.2474,0.2377,0.2362,0.2234,0.2205,0.2564,0.2564,0.2565,0.2565,0.2565,0,0.1303,0.1369,0.1491,0.1551,0.1596,0.1725,0.181,0.1827,0.1879,0.1892,0.203,0.2103,0.2222,0.228,0.232,0.2315,0.2416,0.2334,0.2344,0.2216,0.2188,0.2518,0.2514,0.256,0.2561,0.2562,0.2563,0,0.1277,0.1358,0.1467,0.1578,0.1595,0.1677,0.1807,0.1843,0.1892,0.196,0.2001,0.2081,0.2139,0.22,0.2267,0.227,0.2274,0.227,0.2015,0.1998,0.2149,0.2147,0.2102,0.2096,0.2092,0.2088,0.2085,0,0.129,0.1364,0.1464,0.1505,0.1615,0.1719,0.1745,0.1812,0.186,0.1963,0.1981,0.2061,0.2096,0.2065,0.2018,0.1971,0.2157,0.1839,0.1895,0.2098,0.2113,0.2118,0.2122,0.1678,0.1672,0.1667,0.1663,0,0.1342,0.1429,0.1455,0.1473,0.1583,0.1667,0.1764,0.1727,0.183,0.1877,0.1938,0.1981,0.1953,0.1802,0.1713,0.1702,0.1814,0.1731,0.2071,0.1828,0.1693,0.171,0.1729,0.1618,0.1622,0.1626,0.1628,0.163,0.1381,0.1401,0.1431,0.1477,0.1553,0.1615,0.1633,0.169,0.1692,0.1696,0.1799,0.1775,0.1707,0.1439,0.1411,0.1377,0.1493,0.1485,0.1504,0.1528,0.1511,0.1378,0.1229,0.1231,0.1233,0.1235,0.1236,0,0.1413,0.1423,0.143,0.1473,0.1543,0.1601,0.1614,0.1568,0.1542,0.1543,0.157,0.1334,0.1205,0.1187,0.1038,0.1023,0.1068,0.104,0.1107,0.1147,0.1185,0.1157,0.0778,0.0777,0.0776,0.0776,0,0,0.1392,0.14,0.1371,0.1444,0.15,0.1505,0.1497,0.1387,0.1313,0.1165,0.1103,0.1106,0.1099,0.0891,0.0873,0.0825,0.1003,0.0804,0.1158,0.1275,0.1313,0.1405,0.1401,0,0,0,0,0]},{"header":{"parameterUnit":"m.s-1","parameterCategory":2,"la1":30.2991,"la2":30.254,"lo1":-89.0895,"lo2":-89.0444,"dy":0.0017,"dx":0.0017,"nx":28,"ny":28,"refTime":"2023-07-19T09:00:00:Z","depth":"2","parameterNumber":3,"parameterNumberName":"V-component_of_CURRENTS"},"data":[0,0,0,0,0,0,0,0,0,0,0,0,0,0,0,0,0,0,0,0,0,0,0,0,0,0,0,0,0,0,0,0,0,0,0,0,0,0,0,0,0,0,0,0,0,0,0,0,0,0,0,0,0,0,0,0,0,0,-0.036,-0.036,0,-0.0283,-0.0282,-0.0281,-0.023,-0.023,-0.023,-0.023,-0.0114,-0.0111,-0.0108,0,0,0,0,0,0,0,0,0,0,0,0,0,-0.042,-0.042,-0.036,-0.036,-0.0359,-0.0283,-0.0282,-0.028,-0.023,-0.023,-0.023,-0.023,-0.0115,-0.0111,-0.0107,0,0,0,0,0,0,0,0,0,0,0,0,0,-0.0371,-0.0419,-0.0361,-0.0327,-0.0324,-0.0283,-0.0282,-0.028,-0.023,-0.023,-0.023,-0.023,-0.0116,-0.0111,-0.0107,-0.008,0,0,-0.0093,-0.0091,0,0,0,0,0,0,0,0,-0.0374,-0.0369,-0.0333,-0.0329,-0.0325,-0.0269,-0.026,-0.0212,-0.023,-0.0262,-0.023,-0.023,-0.0164,-0.0155,-0.0137,-0.0074,-0.0069,-0.0092,-0.009,-0.0088,-0.0086,0,0,0,0,0,0,0,-0.0377,-0.0371,-0.0327,-0.0332,-0.0328,-0.0301,-0.0294,-0.0251,-0.0211,-0.026,-0.0256,-0.0253,-0.0161,-0.0142,-0.0134,-0.0067,-0.0092,-0.0088,-0.0086,-0.0084,0.0135,0.0138,0,0,0,0,0,0,-0.0395,-0.0375,-0.0329,-0.0325,-0.0353,-0.03,-0.0292,-0.0284,-0.0213,-0.0203,-0.0253,-0.0251,-0.015,-0.0139,-0.013,-0.0047,-0.0088,-0.0083,-0.0081,0.0132,0.0136,0.0139,0,0,0,0,0,0,-0.0397,-0.0392,-0.0332,-0.0351,-0.0342,-0.03,-0.0291,-0.0283,-0.0247,-0.0208,-0.0197,-0.0224,-0.0149,-0.0136,-0.0043,-0.0044,-0.0081,-0.0077,0.0129,0.0133,0.0138,0.009,0,0,0,0,0,0,-0.0399,-0.0393,-0.0402,-0.0352,-0.0341,-0.0319,-0.0291,-0.0282,-0.0247,-0.0243,-0.018,-0.017,-0.0148,-0.0049,-0.0038,-0.0038,-0.0073,0.0125,0.0131,0.0136,0.0087,0.0092,0.0096,0,0,0,0,0,-0.0401,-0.0391,-0.0402,-0.0398,-0.0352,-0.032,-0.0312,-0.028,-0.0246,-0.0242,-0.0157,-0.0171,-0.0006,-0.0043,-0.003,-0.0029,0.0122,0.0129,0.0136,0.0086,0.0091,0.0096,0,0,0,0,0,0,-0.0411,-0.0384,-0.0395,-0.0377,-0.0367,-0.0313,-0.0295,-0.0269,-0.0199,-0.0181,-0.0127,-0.011,-0.0032,-0.0001,-0.0043,0.0061,0.0054,0.0063,0.0011,0.0017,0.0021,-0.0013,-0.007,0,0,0,0,0,-0.0426,-0.0428,-0.0396,-0.0398,-0.0375,-0.0334,-0.0316,-0.0299,-0.0232,-0.0202,-0.0128,-0.0051,0.0004,0.0034,0.0095,0.0151,0.0164,0.0166,0.017,0.0173,0.0161,0.0206,0.0211,0.0162,0.0162,0.0162,0,0,-0.0459,-0.0425,-0.0445,-0.0405,-0.0377,-0.0319,-0.032,-0.0291,-0.0248,-0.0199,-0.0078,-0.003,0.0031,0.0097,0.0133,0.012,0.0197,0.0182,0.0183,0.0169,0.0214,0.0217,0.0221,0.0167,0.0166,0.0165,0,0,-0.0456,-0.0461,-0.0436,-0.0419,-0.0379,-0.0328,-0.0313,-0.0236,-0.0213,-0.012,-0.0066,-0.0011,0.0109,0.0132,0.0159,0.0229,0.0225,0.0259,0.0236,0.028,0.0282,0.0284,0.0297,0.0301,0.0251,0.025,0.025,0,-0.0477,-0.0442,-0.0432,-0.0377,-0.0344,-0.0314,-0.0254,-0.0227,-0.0129,-0.0114,-0.0082,0.0087,0.0115,0.0174,0.0187,0.0227,0.0254,0.0195,0.0277,0.028,0.0283,0.0296,0.03,0.0249,0.0249,0.0249,0.0249,0,-0.0434,-0.042,-0.0392,-0.0305,-0.0264,-0.0231,-0.0173,-0.0128,-0.0068,-0.0049,0.0027,0.0092,0.0181,0.019,0.02,0.024,0.0252,0.0276,0.0242,0.0284,0.0296,0.0302,0.0247,0.0247,0.0248,0.0248,0,0,-0.0443,-0.0374,-0.0369,-0.0334,-0.0232,-0.0187,-0.0112,-0.0054,-0.002,0.0044,0.0107,0.0156,0.0171,0.0205,0.0231,0.0238,0.0255,0.0255,0.0258,0.0226,0.0341,0.033,0.0334,0.0299,0.03,0.0301,0.0335,0,-0.0406,-0.0298,-0.0266,-0.018,-0.0113,-0.0081,-0.0018,0.0017,0.0063,0.0129,0.0127,0.0204,0.0183,0.0228,0.0232,0.0255,0.0272,0.0242,0.0341,0.0343,0.0294,0.0341,0.0273,0.0297,0.034,0.0341,0.0342,0,-0.0362,-0.0289,-0.0194,-0.0122,-0.0089,-0.0022,0.008,0.0115,0.0153,0.0172,0.0219,0.0254,0.027,0.0275,0.0301,0.0291,0.0314,0.032,0.0323,0.0328,0.0343,0.0271,0.0306,0.0351,0.0351,0.035,0.0349,0,-0.0328,-0.0247,-0.0165,-0.0144,-0.0041,0.0003,0.0076,0.013,0.0143,0.0211,0.0257,0.0288,0.0333,0.0356,0.036,0.0344,0.04,0.0391,0.0405,0.0404,0.0371,0.0365,0.0441,0.0441,0.0441,0.0441,0.0441,0,-0.028,-0.0239,-0.0159,-0.0109,-0.0048,0.0023,0.0098,0.0135,0.0199,0.0231,0.0282,0.0349,0.0359,0.04,0.0393,0.0408,0.0438,0.0401,0.0419,0.0355,0.0348,0.0419,0.0416,0.0442,0.0442,0.0441,0.0441,0,-0.0279,-0.0232,-0.0155,-0.0046,-0.0031,0.0019,0.0114,0.0158,0.0211,0.0282,0.0314,0.0382,0.0425,0.0442,0.0475,0.0454,0.0471,0.0489,0.0393,0.0399,0.0428,0.0423,0.0476,0.0476,0.0476,0.0476,0.0477,0,-0.0283,-0.0228,-0.0123,-0.0091,-0.0043,0.0028,0.0075,0.0148,0.0205,0.0307,0.035,0.0424,0.0492,0.0522,0.0489,0.0489,0.0513,0.0436,0.0385,0.0423,0.0436,0.043,0.0426,0.0319,0.0318,0.0317,0.0316,0,-0.0267,-0.022,-0.0142,-0.007,-0.0011,0.0042,0.0137,0.0174,0.0261,0.0332,0.043,0.0493,0.0523,0.0482,0.048,0.0469,0.0415,0.0415,0.0511,0.0322,0.0278,0.029,0.0289,0.0307,0.0308,0.0309,0.0309,0.0309,-0.0263,-0.0221,-0.0105,-0.005,0.0011,0.0085,0.0155,0.0244,0.0323,0.0443,0.0473,0.0564,0.049,0.0473,0.0421,0.0365,0.0389,0.034,0.0341,0.0345,0.0321,0.0281,0.0303,0.0304,0.0305,0.0306,0.0306,0,-0.0216,-0.0152,-0.0093,0.0011,0.009,0.0109,0.0205,0.0272,0.0383,0.0479,0.0565,0.05,0.0467,0.0419,0.0299,0.0239,0.0229,0.0228,0.0194,0.0203,0.0211,0.018,0.0125,0.0125,0.0124,0.0124,0,0,-0.0182,-0.0095,-0.0066,0.0058,0.0125,0.0221,0.0279,0.0347,0.0428,0.0514,0.0565,0.062,0.0516,0.0387,0.0269,0.0196,0.0233,0.0195,0.0339,0.0319,0.0328,0.0264,0.0224,0,0,0,0,0]}],[{"header":{"parameterUnit":"m.s-1","parameterCategory":2,"la1":30.2991,"la2":30.254,"lo1":-89.0895,"lo2":-89.0444,"dy":0.0017,"dx":0.0017,"nx":28,"ny":28,"refTime":"2023-07-19T09:00:00:Z","depth":"4","parameterNumber":2,"parameterNumberName":"U-component_of_CURRENTS"},"data":[0,0,0,0,0,0,0,0,0,0,0,0,0,0,0,0,0,0,0,0,0,0,0,0,0,0,0,0,0,0,0,0,0,0,0,0,0,0,0,0,0,0,0,0,0,0,0,0,0,0,0,0,0,0,0,0,0,0,-0.0562,-0.0563,0,-0.0651,-0.0652,-0.0652,-0.0681,-0.0681,-0.0681,-0.0681,-0.0773,-0.0776,-0.0778,0,0,0,0,0,0,0,0,0,0,0,0,0,-0.0506,-0.0506,-0.0562,-0.0563,-0.0564,-0.0651,-0.0652,-0.0653,-0.0681,-0.0681,-0.0681,-0.0681,-0.0772,-0.0775,-0.0778,0,0,0,0,0,0,0,0,0,0,0,0,0,-0.0554,-0.0506,-0.0561,-0.059,-0.0594,-0.065,-0.0652,-0.0653,-0.0682,-0.0681,-0.0681,-0.068,-0.0771,-0.0775,-0.0779,-0.0811,0,0,-0.0791,-0.0793,0,0,0,0,0,0,0,0,-0.0552,-0.0556,-0.0585,-0.0588,-0.0592,-0.0656,-0.0666,-0.0707,-0.0682,-0.0646,-0.0681,-0.068,-0.0735,-0.0742,-0.0758,-0.0816,-0.082,-0.0792,-0.0794,-0.0796,-0.0797,0,0,0,0,0,0,0,-0.0548,-0.0553,-0.0595,-0.0586,-0.0591,-0.0629,-0.0635,-0.0674,-0.0691,-0.065,-0.0652,-0.0665,-0.0737,-0.0754,-0.076,-0.0821,-0.0791,-0.0795,-0.0798,-0.0799,-0.0975,-0.0978,0,0,0,0,0,0,-0.0536,-0.0549,-0.0592,-0.0598,-0.0572,-0.063,-0.0636,-0.0635,-0.069,-0.0699,-0.0665,-0.0666,-0.0747,-0.0755,-0.0763,-0.0814,-0.0796,-0.08,-0.0802,-0.0973,-0.0976,-0.0978,0,0,0,0,0,0,-0.0534,-0.0538,-0.0589,-0.0578,-0.0587,-0.0631,-0.0629,-0.0637,-0.0675,-0.0702,-0.0711,-0.0698,-0.0747,-0.0758,-0.0797,-0.0817,-0.0801,-0.0805,-0.097,-0.0974,-0.0977,-0.091,0,0,0,0,0,0,-0.0532,-0.0537,-0.053,-0.0577,-0.0588,-0.0623,-0.063,-0.0639,-0.0683,-0.0685,-0.0734,-0.074,-0.0748,-0.079,-0.0801,-0.0823,-0.0808,-0.0968,-0.0972,-0.0976,-0.0909,-0.091,-0.0911,0,0,0,0,0,-0.0529,-0.0526,-0.0528,-0.0534,-0.0576,-0.0624,-0.0633,-0.0663,-0.0685,-0.0698,-0.0724,-0.074,-0.0826,-0.0794,-0.0806,-0.083,-0.0966,-0.0971,-0.0976,-0.0909,-0.091,-0.0911,0,0,0,0,0,0,-0.0515,-0.053,-0.0534,-0.0539,-0.0577,-0.0629,-0.0655,-0.0681,-0.0716,-0.0725,-0.0751,-0.0759,-0.0805,-0.0841,-0.0805,-0.0902,-0.0907,-0.0915,-0.0853,-0.0855,-0.0856,-0.0897,-0.0812,0,0,0,0,0,-0.0504,-0.0496,-0.0533,-0.0541,-0.0566,-0.0617,-0.0643,-0.0665,-0.0704,-0.0722,-0.0761,-0.0808,-0.0836,-0.086,-0.0897,-0.0943,-0.098,-0.0979,-0.098,-0.098,-0.1027,-0.1048,-0.1053,-0.0995,-0.0995,-0.0995,0,0,-0.0507,-0.0512,-0.0511,-0.0536,-0.0578,-0.0627,-0.0633,-0.0682,-0.0717,-0.0727,-0.0796,-0.0812,-0.0851,-0.0888,-0.0917,-0.0918,-0.1018,-0.0986,-0.0985,-0.1034,-0.1053,-0.1058,-0.1063,-0.0998,-0.0998,-0.0997,0,0,-0.0519,-0.0517,-0.0523,-0.0551,-0.0599,-0.064,-0.0661,-0.0726,-0.0745,-0.0805,-0.0811,-0.0841,-0.092,-0.0927,-0.0944,-0.0991,-0.102,-0.1014,-0.105,-0.1066,-0.107,-0.1075,-0.1121,-0.1129,-0.1016,-0.1016,-0.1016,0,-0.0524,-0.0532,-0.0539,-0.0564,-0.0624,-0.0656,-0.0725,-0.0735,-0.0801,-0.0832,-0.0831,-0.0956,-0.0944,-0.1,-0.0985,-0.0991,-0.1018,-0.102,-0.1062,-0.1067,-0.1073,-0.1119,-0.113,-0.1013,-0.1013,-0.1014,-0.1014,0,-0.0544,-0.0561,-0.0582,-0.0627,-0.0694,-0.0746,-0.0795,-0.0835,-0.0886,-0.0908,-0.099,-0.0992,-0.1065,-0.1056,-0.1019,-0.1063,-0.1076,-0.1046,-0.1041,-0.1073,-0.1122,-0.1134,-0.1009,-0.101,-0.1011,-0.1012,0,0,-0.0529,-0.0583,-0.0587,-0.0633,-0.0737,-0.0792,-0.087,-0.0951,-0.0999,-0.1045,-0.1139,-0.1138,-0.1143,-0.1166,-0.1138,-0.1143,-0.114,-0.1101,-0.1102,-0.1119,-0.1204,-0.0983,-0.0975,-0.1098,-0.11,-0.1102,-0.1218,0,-0.0553,-0.0613,-0.0654,-0.0758,-0.0829,-0.0902,-0.0982,-0.1049,-0.1104,-0.1173,-0.1186,-0.1225,-0.1178,-0.1184,-0.1191,-0.1154,-0.1173,-0.1115,-0.12,-0.1205,-0.0977,-0.0981,-0.1108,-0.1227,-0.123,-0.1232,-0.1233,0,-0.0565,-0.0612,-0.0733,-0.085,-0.0892,-0.0961,-0.1132,-0.1189,-0.1264,-0.128,-0.1347,-0.1351,-0.1365,-0.1305,-0.1334,-0.1296,-0.1258,-0.1241,-0.1244,-0.108,-0.1004,-0.1198,-0.1255,-0.1253,-0.1252,-0.125,-0.1249,0,-0.0575,-0.0664,-0.0776,-0.0816,-0.0961,-0.1036,-0.1115,-0.1236,-0.1283,-0.1329,-0.1356,-0.1425,-0.1422,-0.1436,-0.1375,-0.1344,-0.1421,-0.1368,-0.1175,-0.1162,-0.1357,-0.1352,-0.1409,-0.1409,-0.1409,-0.1409,-0.1408,0,-0.0578,-0.0653,-0.0772,-0.0813,-0.0941,-0.1061,-0.1188,-0.1225,-0.1332,-0.1342,-0.1387,-0.1351,-0.1439,-0.1476,-0.1446,-0.1346,-0.1475,-0.1202,-0.1168,-0.1329,-0.1319,-0.1365,-0.1358,-0.1413,-0.1412,-0.1411,-0.141,0,-0.0566,-0.0645,-0.0766,-0.0907,-0.0946,-0.1046,-0.1178,-0.1242,-0.1309,-0.1335,-0.1328,-0.1323,-0.124,-0.1379,-0.1381,-0.1369,-0.1335,-0.1273,-0.1489,-0.1463,-0.1065,-0.1055,-0.1074,-0.1067,-0.1061,-0.1056,-0.1052,0,-0.0557,-0.0626,-0.0793,-0.0855,-0.0911,-0.104,-0.1114,-0.121,-0.1242,-0.1222,-0.1195,-0.1152,-0.1114,-0.1038,-0.1108,-0.1163,-0.1114,-0.1211,-0.1091,-0.1062,-0.1028,-0.1027,-0.1024,-0.1042,-0.1041,-0.1039,-0.1037,0,-0.0544,-0.0632,-0.0712,-0.0841,-0.093,-0.0993,-0.1063,-0.1043,-0.1104,-0.1207,-0.0982,-0.0912,-0.0829,-0.0805,-0.0908,-0.0906,-0.122,-0.1148,-0.1159,-0.1046,-0.1023,-0.0995,-0.1,-0.1017,-0.102,-0.1022,-0.1023,0,-0.0529,-0.0583,-0.07,-0.0799,-0.0899,-0.0864,-0.0911,-0.0879,-0.0907,-0.0898,-0.0769,-0.0683,-0.0719,-0.0656,-0.0691,-0.0742,-0.0681,-0.0744,-0.0774,-0.0799,-0.0647,-0.0575,-0.0408,0,0,0,0,0,-0.049,-0.0526,-0.0625,-0.0714,-0.0805,-0.0843,-0.085,-0.0889,-0.0919,-0.0741,-0.0765,-0.0626,-0.0518,-0.0458,-0.0441,-0.0545,-0.0722,-0.0529,-0.0818,-0.0902,-0.0926,-0.0769,0,0,0,0,0,0,-0.0467,-0.055,-0.0596,-0.0617,-0.0649,-0.071,-0.0681,-0.069,-0.0592,-0.0614,-0.0536,-0.0633,-0.0533,-0.0534,-0.044,-0.0453,-0.063,-0.0548,-0.0546,-0.0888,-0.091,-0.0929,-0.0777,0,0,0,0,0]},{"header":{"parameterUnit":"m.s-1","parameterCategory":2,"la1":30.2991,"la2":30.254,"lo1":-89.0895,"lo2":-89.0444,"dy":0.0017,"dx":0.0017,"nx":28,"ny":28,"refTime":"2023-07-19T09:00:00:Z","depth":"4","parameterNumber":3,"parameterNumberName":"V-component_of_CURRENTS"},"data":[0,0,0,0,0,0,0,0,0,0,0,0,0,0,0,0,0,0,0,0,0,0,0,0,0,0,0,0,0,0,0,0,0,0,0,0,0,0,0,0,0,0,0,0,0,0,0,0,0,0,0,0,0,0,0,0,0,0,0.015,0.015,0,0.0165,0.0165,0.0164,0.0158,0.0158,0.0158,0.0158,0.0207,0.0208,0.0209,0,0,0,0,0,0,0,0,0,0,0,0,0,0.0198,0.0196,0.015,0.015,0.0151,0.0165,0.0165,0.0164,0.0158,0.0158,0.0158,0.0158,0.0206,0.0208,0.0209,0,0,0,0,0,0,0,0,0,0,0,0,0,0.0187,0.0196,0.015,0.0152,0.0153,0.0165,0.0165,0.0164,0.0158,0.0158,0.0158,0.0158,0.0206,0.0208,0.021,0.0221,0,0,0.0216,0.0216,0,0,0,0,0,0,0,0,0.0188,0.0185,0.0151,0.0152,0.0153,0.0163,0.02,0.0186,0.0158,0.0151,0.0158,0.0158,0.0198,0.0201,0.0197,0.0223,0.0225,0.0216,0.0217,0.0218,0.0218,0,0,0,0,0,0,0,0.0188,0.0185,0.0151,0.0152,0.0153,0.0182,0.0179,0.0197,0.0172,0.0152,0.0153,0.0161,0.0198,0.0195,0.0198,0.0226,0.0216,0.0217,0.0219,0.0219,0.0221,0.022,0,0,0,0,0,0,0.019,0.0185,0.0151,0.0152,0.0176,0.0181,0.0178,0.0156,0.0171,0.0174,0.0161,0.0161,0.0192,0.0196,0.02,0.0222,0.0218,0.022,0.0221,0.0222,0.0221,0.022,0,0,0,0,0,0,0.0191,0.0186,0.015,0.0175,0.0172,0.018,0.0156,0.0157,0.0162,0.0178,0.0181,0.0168,0.0192,0.0197,0.0179,0.0223,0.022,0.0222,0.0223,0.0222,0.022,0.0261,0,0,0,0,0,0,0.0191,0.0185,0.017,0.0173,0.0171,0.0147,0.0157,0.0157,0.0169,0.0169,0.0185,0.0189,0.0192,0.0175,0.0181,0.0226,0.0224,0.0225,0.0223,0.0221,0.0261,0.0261,0.026,0,0,0,0,0,0.0192,0.017,0.0169,0.0166,0.0149,0.0146,0.0147,0.0151,0.0169,0.0159,0.015,0.0188,0.0167,0.0175,0.0182,0.0229,0.0226,0.0223,0.0221,0.0261,0.0261,0.026,0,0,0,0,0,0,0.0178,0.0168,0.0166,0.0139,0.014,0.0147,0.0153,0.0158,0.0146,0.0151,0.0164,0.0165,0.0157,0.0174,0.0183,0.0215,0.0209,0.0207,0.0237,0.0237,0.0237,0.0259,0.0225,0,0,0,0,0,0.017,0.0157,0.015,0.0134,0.0138,0.015,0.0154,0.0152,0.0148,0.0145,0.0154,0.016,0.0152,0.0177,0.0156,0.0192,0.0209,0.0224,0.0224,0.0224,0.0241,0.0263,0.0269,0.0211,0.0211,0.0211,0,0,0.0168,0.016,0.0154,0.0133,0.0145,0.0135,0.0151,0.0156,0.0154,0.0154,0.0155,0.0143,0.0145,0.0152,0.0159,0.0184,0.0248,0.0221,0.0222,0.0239,0.0262,0.0268,0.0273,0.021,0.021,0.021,0,0,0.0168,0.0147,0.0142,0.0127,0.0132,0.0136,0.014,0.0143,0.0151,0.0141,0.0132,0.0149,0.0147,0.0171,0.0182,0.0177,0.0215,0.017,0.0238,0.026,0.0266,0.0272,0.0308,0.0317,0.0211,0.0211,0.0211,0,0.0167,0.014,0.0142,0.0124,0.0114,0.0138,0.0123,0.0135,0.0128,0.0129,0.014,0.0144,0.0168,0.0197,0.0201,0.0189,0.0193,0.0248,0.0265,0.0271,0.0276,0.0312,0.0321,0.0213,0.0213,0.0213,0.0212,0,0.0143,0.0126,0.0126,0.0107,0.0097,0.0087,0.0096,0.0105,0.013,0.0128,0.0143,0.0173,0.0188,0.0211,0.0218,0.0272,0.0257,0.0234,0.0279,0.0286,0.0321,0.033,0.0215,0.0215,0.0214,0.0214,0,0,0.0134,0.0114,0.0114,0.0099,0.0078,0.0069,0.0082,0.0084,0.0089,0.0123,0.0135,0.019,0.0217,0.0231,0.0265,0.0329,0.0396,0.0317,0.0317,0.0377,0.0445,0.0321,0.0319,0.0365,0.0367,0.0368,0.046,0,0.0121,0.0091,0.0077,0.0052,0.0039,0.004,0.0037,0.0038,0.0061,0.0072,0.0152,0.0159,0.0223,0.0249,0.0322,0.0346,0.0418,0.0374,0.0409,0.0411,0.0319,0.0324,0.0372,0.0466,0.0468,0.047,0.0471,0,0.0095,0.0079,0.0062,0.002,0.0012,0.0004,0.0001,0.0001,0.0023,0.0033,0.0093,0.0113,0.0229,0.0264,0.0399,0.0357,0.0416,0.0458,0.0461,0.034,0.0302,0.0452,0.0487,0.0486,0.0485,0.0484,0.0483,0,0.009,0.006,0.0054,0.0033,-0.0,0.0007,0.0,0.0002,-0.0004,0.0034,0.0021,0.0122,0.0177,0.0278,0.0385,0.0389,0.0495,0.0505,0.0459,0.0452,0.0525,0.0517,0.0595,0.0595,0.0595,0.0594,0.0594,0,0.006,0.0048,0.0064,0.0043,0.0025,0.0009,-0.0005,-0.0005,-0.0003,-0.0032,0.0024,0.002,0.0177,0.0242,0.0359,0.0425,0.0482,0.0474,0.0462,0.0537,0.053,0.0532,0.0524,0.0598,0.0597,0.0596,0.0596,0,0.0052,0.006,0.0053,0.0039,0.0028,0.0033,-0.0012,-0.0039,-0.0029,-0.0048,-0.0037,-0.0032,0.0023,0.0155,0.0295,0.0365,0.0457,0.0463,0.0538,0.0527,0.042,0.0413,0.0447,0.0443,0.044,0.0438,0.0435,0,0.0044,0.0047,0.0053,0.005,0.0053,0.0042,-0.0002,-0.0027,-0.0058,-0.0096,-0.0123,-0.0104,-0.0087,0.0047,0.0149,0.0331,0.0347,0.0422,0.0441,0.0418,0.0404,0.0401,0.0398,0.043,0.0429,0.0429,0.0428,0,0.002,0.0052,0.0037,0.0054,0.0038,-0.0022,-0.0067,-0.0085,-0.0122,-0.0138,-0.0165,-0.0127,-0.0116,-0.0013,0.0097,0.0228,0.0394,0.039,0.0399,0.0418,0.0398,0.0387,0.0387,0.0417,0.0418,0.0419,0.042,0,0.0008,0.0017,0.0034,0.0051,0.0023,-0.0033,-0.0078,-0.0125,-0.0151,-0.0165,-0.0195,-0.017,-0.015,-0.0076,0.0024,0.0126,0.0167,0.026,0.0277,0.029,0.0191,0.0139,0.0075,0,0,0,0,0,-0.0004,0.0012,0.0012,0.0025,-0.0001,0.0002,-0.0108,-0.0155,-0.0186,-0.0191,-0.0168,-0.0154,-0.0079,-0.0093,-0.0004,-0.0052,0.0168,0.0049,0.0283,0.0356,0.0369,0.0264,0,0,0,0,0,0,-0.0014,-0.0008,0.0018,0.0025,0.0047,-0.0008,-0.0051,-0.0106,-0.0111,-0.0126,-0.0096,-0.0091,-0.0035,-0.0073,0.0029,0.0037,0.02,0.0073,0.0075,0.0349,0.036,0.037,0.0268,0,0,0,0,0]}]]